MST,Max TemperatureF,Mean TemperatureF,Min TemperatureF,Max Dew PointF,MeanDew PointF,Min DewpointF,Max Humidity, Mean Humidity, Min Humidity, Max Sea Level PressureIn, Mean Sea Level PressureIn, Min Sea Level PressureIn, Max VisibilityMiles, Mean VisibilityMiles, Min VisibilityMiles, Max Wind SpeedMPH, Mean Wind SpeedMPH, Max Gust SpeedMPH,PrecipitationIn, CloudCover, Events, WindDirDegrees
2012-11-1,69,48,29,25,22,17,73,44,14,30.07,29.92,29.77,10,10,10,13,8,,0.00,0,,356
2012-11-2,58,48,30,26,17,4,72,31,12,30.08,29.88,29.73,10,10,10,13,8,,0.00,1,,18
2012-11-3,55,38,23,28,24,20,89,63,31,30.30,30.18,30.10,10,10,10,12,7,,0.00,0,,38
2012-11-4,64,45,27,24,19,12,80,41,16,30.19,30.13,29.97,10,10,5,13,8,17,0.00,0,,357
2012-11-5,58,42,25,27,25,20,89,58,29,30.35,30.19,30.05,10,10,10,12,7,,0.00,0,,5
2012-11-6,62,47,30,26,24,20,77,46,22,30.28,30.14,30.05,10,10,10,14,9,20,0.00,0,,16
2012-11-7,68,48,29,25,19,12,78,40,13,30.18,29.95,29.77,10,10,10,14,8,,0.00,0,,21
2012-11-8,66,51,32,20,13,6,58,24,10,29.91,29.74,29.65,10,10,10,22,8,29,0.00,0,,115
2012-11-9,66,50,33,26,21,17,60,31,15,29.63,29.48,29.35,10,10,10,22,10,33,0.00,0,,240
2012-11-10,51,36,18,36,21,-3,79,47,17,29.80,29.38,29.25,10,10,10,24,16,31,0.00,1,Rain,255
2012-11-11,32,24,17,18,8,-12,86,58,14,30.29,30.02,29.78,10,9,4,29,8,40,0.01,3,Snow,215
2012-11-12,46,27,8,0,-6,-17,52,26,7,30.47,30.35,30.24,10,10,10,12,6,17,0.00,0,,106
2012-11-13,51,36,18,13,8,-3,71,33,17,30.35,30.19,29.98,10,10,10,22,9,29,0.00,1,,1
2012-11-14,52,34,16,19,13,8,82,51,19,30.39,30.26,30.12,10,10,10,10,8,,0.00,0,,3
2012-11-15,47,35,21,28,22,9,83,60,37,30.45,30.35,30.13,10,10,4,17,10,21,0.00,1,,1
2012-11-16,52,34,16,26,19,14,87,61,28,30.39,30.24,30.09,10,10,10,13,7,,0.00,0,,19
2012-11-17,61,48,37,19,17,15,45,28,16,30.18,30.07,29.94,10,10,10,18,7,23,0.00,0,,333
2012-11-18,59,49,39,20,17,13,43,27,17,30.07,30.02,29.94,10,10,10,18,11,26,0.00,0,,282
2012-11-19,57,42,28,16,15,12,57,32,17,30.28,30.16,30.04,10,10,10,10,7,18,0.00,0,,17
2012-11-20,61,43,25,15,12,10,52,34,13,30.35,30.21,30.04,10,10,10,13,7,,0.00,0,,41
2012-11-21,69,54,38,12,0,-10,32,12,4,30.11,29.92,29.76,10,10,10,17,9,30,0.00,0,,282
2012-11-22,62,42,20,23,10,-4,66,28,9,30.45,30.07,29.74,10,10,10,17,9,22,0.00,0,,311
2012-11-23,45,30,14,12,11,9,78,51,26,30.62,30.50,30.33,10,10,10,10,7,,0.00,0,,30
2012-11-24,68,46,25,10,-1,-6,53,13,5,30.27,30.03,29.86,10,10,10,18,9,24,0.00,0,,320
2012-11-25,56,42,29,14,5,0,50,23,13,29.98,29.87,29.73,10,10,10,14,7,23,0.00,0,,93
2012-11-26,36,28,21,24,22,14,89,74,57,30.39,30.25,29.96,10,10,10,28,13,31,0.00,6,,25
2012-11-27,54,36,17,21,4,-20,100,51,4,30.35,30.23,30.16,10,8,1,13,6,20,0.00,2,,4
2012-11-28,53,35,17,2,-2,-8,37,21,10,30.36,30.21,29.99,10,10,10,21,9,31,0.00,0,,344
2012-11-29,60,48,35,18,12,0,42,24,13,30.08,29.98,29.88,10,10,10,15,8,23,0.00,0,,292
2012-11-30,59,44,28,18,14,13,55,35,16,30.15,29.97,29.84,10,10,10,10,6,,0.00,0,,118